Location: Bauersach School (historical)
(38.0926°N, 89.4806°W)
Time: 03:32:27
(UTC+00:00)

STARLINK-36092 - Pass Details

Date: 11 December 2025
Orbit: 482 x 484 km, 43.0° (Epoch: 21 January)

Event Time Altitude Azimuth Distance (km) Brightness Sun altitude
Exits shadow 12:31:49 - 249° (WSW) 2,557 5.6 -6.6°
Rises 12:31:53 0° 249° (WSW) 2,532 5.6 -6.5°
Reaches altitude 10° 12:34:04 10° 251° (WSW) 1,657 4.6 -6.1°
Maximum altitude 12:37:50 80° 337° (NNW) 496 2.3 -5.5°
Drops below altitude 10° 12:41:39 10° 66° (ENE) 1,672 5.7 -4.8°
Sets 12:43:51 0° 68° (ENE) 2,558 6.7 -4.4°
